COSMOS 2492 (754)

Last updated on Aug. 10, 2020, 5:34 a.m. UTC

1 39620U 14012A   20222.89511587 -.00000044  00000-0  10000-3 0  9993
2 39620  65.7689  25.8090 0011452 332.3185  56.4246  2.13103167 49694
UTC
Height (km)
Latitude
Longitude
Inclination
Orbital Period
UTC large
Height (km)
Speed (km/s)
/
Latitude / Longitude
Inclination (degrees)
Orbital Period (minutes)
Azimuth
Elevation
Range (km)
Doppler Factor
iOS Compass Heading
iOS Angle

Next 30 passes for location: Hong Kong

Rise time Rise Azimuth (degrees) Set time Set Azimuth (degrees) Duration Max altitude (degrees)

No matching passes for this satellites